ON7EQ-13 Weather Reports


Display with metric or nautical units.
time (UTC)temp
F
wind
direction
speed
MPH
gust
MPH
rain 1hr
in
rain 24hr
in
rain mn
in
humidity
%
barometer
mb
20260505194409 53 85 0.0 0.0 0.00 0.00 0.00 99 1008.3
20260505193409 53 85 0.0 0.0 0.00 0.00 0.00 99 1008.2
20260505192410 53 85 0.0 0.0 0.00 0.00 0.00 99 1008.2
20260505191409 53 85 0.0 0.0 0.00 0.00 0.00 99 1008.1
20260505190409 53 85 0.0 0.0 0.00 0.00 0.00 99 1008.0
20260505185409 54 85 0.0 0.0 0.00 0.00 0.00 99 1008.0
20260505184409 54 85 0.0 0.0 0.00 0.00 0.00 99 1008.0
20260505183409 54 85 0.0 0.0 0.00 0.00 0.00 99 1008.0
20260505182410 54 85 0.0 0.0 0.00 0.00 0.00 99 1008.0
20260505181409 54 85 0.0 0.0 0.00 0.00 0.00 99 1008.0
20260505180409 54 85 0.0 0.0 0.00 0.00 0.00 99 1008.0
20260505175409 54 85 0.0 0.0 0.00 0.00 0.00 99 1008.0
20260505174409 55 85 0.0 3.0 0.00 0.00 0.00 99 1007.9
20260505173409 55 70 0.0 3.0 0.00 0.00 0.00 98 1008.0
20260505172409 55 70 0.0 3.0 0.00 0.00 0.00 98 1008.0
20260505171409 55 70 0.0 0.0 0.00 0.00 0.00 99 1008.0
20260505170409 55 70 0.0 4.0 0.00 0.00 0.00 99 1008.0
20260505165409 55 50 0.0 2.0 0.00 0.00 0.00 99 1008.0
20260505164409 55 50 0.0 1.0 0.00 0.00 0.00 99 1008.1
20260505163409 55 50 0.0 3.0 0.00 0.00 0.00 98 1008.2
20260505162409 55 65 0.0 6.0 0.00 0.00 0.00 98 1008.3
20260505161409 56 45 0.0 5.0 0.00 0.00 0.00 98 1008.3
20260505160409 56 50 0.0 3.0 0.00 0.00 0.00 99 1008.3
20260505152410 56 100 0.0 4.0 0.00 0.00 0.00 99 1008.4
20260505151409 56 80 0.0 3.0 0.00 0.00 0.00 99 1008.5
20260505150409 56 65 0.0 1.0 0.00 0.00 0.00 99 1008.5
20260505140409 58 80 0.0 6.0 0.00 0.00 0.00 97 1008.8
20260505124409 58 80 0.0 5.0 0.00 0.00 0.00 98 1009.3
20260505123409 58 75 0.0 3.0 0.00 0.00 0.00 99 1009.2
20260505122410 56 100 0.0 1.0 0.00 0.00 0.00 99 1009.3
20260505121409 55 100 0.0 0.0 0.00 0.00 0.00 99 1009.4
20260505120409 54 100 0.0 1.0 0.00 0.00 0.00 99 1009.4
20260505115409 54 60 1.0 5.0 0.00 0.00 0.00 99 1009.5
20260505114409 54 75 0.0 3.0 0.00 0.00 0.00 99 1009.6
20260505113409 54 15 0.0 6.0 0.00 0.00 0.00 99 1009.7
20260505112409 53 125 0.0 6.0 0.00 0.00 0.00 99 1009.7
20260505111409 53 80 0.0 0.0 0.00 0.00 0.00 99 1009.8
20260505110409 53 80 0.0 6.0 0.00 0.00 0.00 99 1009.9
20260505101410 53 75 0.0 6.0 0.00 0.00 0.00 99 1009.9
20260505100409 53 110 0.0 2.0 0.00 0.00 0.00 99 1009.9
20260505095409 54 75 0.0 3.0 0.00 0.00 0.00 99 1009.8
20260505094409 54 100 0.0 2.0 0.00 0.00 0.00 99 1009.8
20260505093409 54 80 0.0 7.0 0.00 0.00 0.00 99 1009.9
20260505092409 54 105 1.0 3.0 0.00 0.00 0.00 99 1009.9
20260505091409 54 75 0.0 5.0 0.00 0.00 0.00 99 1009.9
20260505090409 53 80 0.0 2.0 0.00 0.00 0.00 99 1010.0
20260505085410 53 35 0.0 1.0 0.00 0.00 0.00 99 1010.0
20260505084409 53 50 0.0 3.0 0.00 0.00 0.00 99 1010.0
20260505083409 53 80 0.0 1.0 0.00 0.00 0.00 99 1010.0
20260505082409 53 75 0.0 2.0 0.00 0.00 0.00 99 1009.9
20260505081409 53 100 0.0 6.0 0.00 0.00 0.00 99 1009.9
20260505080409 53 90 0.0 3.0 0.00 0.00 0.00 99 1010.0
20260505075409 53 70 0.0 5.0 0.00 0.00 0.00 99 1010.0
20260505074409 53 85 0.0 5.0 0.00 0.00 0.00 99 1009.9
20260505073409 53 60 0.0 3.0 0.00 0.00 0.00 99 1009.9
20260505072409 53 115 0.0 1.0 0.00 0.00 0.00 99 1009.9
20260505071410 53 135 0.0 0.0 0.00 0.00 0.00 99 1009.9
20260505070409 53 135 0.0 0.0 0.00 0.00 0.00 99 1009.9
20260505065409 53 135 0.0 0.0 0.00 0.00 0.00 99 1009.9
20260505064409 53 135 0.0 0.0 0.00 0.00 0.00 99 1009.9
20260505063409 52 135 0.0 0.0 0.00 0.00 0.00 99 1009.9
20260505062409 52 135 0.0 0.0 0.00 0.00 0.00 99 1010.1
20260505061409 52 135 0.0 0.0 0.00 0.00 0.00 99 1010.1
20260505060410 52 135 0.0 0.0 0.00 0.00 0.00 99 1010.1
20260505055410 52 135 0.0 0.0 0.00 0.00 0.00 99 1010.1
20260505054409 52 135 0.0 2.0 0.00 0.00 0.00 99 1010.1
20260505053409 52 105 0.0 0.0 0.00 0.00 0.00 99 1010.0
20260505052409 52 105 0.0 0.0 0.00 0.00 0.00 99 1010.0
20260505051409 52 105 0.0 0.0 0.00 0.00 0.00 99 1009.7
20260505050409 53 105 0.0 0.0 0.00 0.00 0.00 99 1009.7
20260505041414 53 105 0.0 1.0 0.00 0.00 0.00 99 1010.0
20260505040409 53 155 0.0 0.0 0.00 0.00 0.00 99 1010.0
20260505035409 53 155 0.0 0.0 0.00 0.00 0.00 99 1010.0
20260505034410 53 155 0.0 0.0 0.00 0.00 0.00 99 1010.0
20260505033409 53 155 0.0 0.0 0.00 0.00 0.00 99 1010.0
20260505032409 54 155 0.0 0.0 0.00 0.00 0.00 99 1010.0
20260505031409 54 155 0.0 0.0 0.00 0.00 0.00 99 1010.1
20260505030409 54 155 0.0 0.0 0.00 0.00 0.00 99 1010.1
20260505025410 54 155 0.0 0.0 0.00 0.00 0.00 99 1010.1
20260505024409 54 155 0.0 0.0 0.00 0.00 0.00 99 1010.0
20260505023409 54 155 0.0 0.0 0.00 0.00 0.00 99 1010.2
20260505022409 54 155 0.0 0.0 0.00 0.00 0.00 99 1010.3
20260505021409 55 155 0.0 0.0 0.00 0.00 0.00 99 1010.2
20260505020409 55 155 0.0 1.0 0.00 0.00 0.00 99 1010.2
20260505015409 55 125 1.0 1.0 0.00 0.00 0.00 99 1010.1
20260505014409 55 125 0.0 0.0 0.00 0.00 0.00 99 1010.1
20260505013409 55 125 0.0 1.0 0.00 0.00 0.00 99 1010.1
20260505012409 55 90 0.0 2.0 0.00 0.00 0.00 99 1010.0
20260505011409 55 75 0.0 3.0 0.00 0.00 0.00 99 1010.1
20260505010409 55 70 1.0 2.0 0.00 0.00 0.00 99 1010.2
20260505005409 55 75 0.0 3.0 0.00 0.00 0.00 99 1010.4
20260505004409 56 45 0.0 1.0 0.00 0.00 0.00 99 1010.4
20260505003409 56 40 0.0 1.0 0.00 0.00 0.00 99 1010.4
20260505002409 56 30 0.0 1.0 0.00 0.00 0.00 99 1010.4
20260505001409 56 130 0.0 1.0 0.00 0.00 0.00 99 1010.5
20260505000409 56 130 0.0 2.0 0.00 0.00 0.00 99 1010.5
20260504235410 56 135 0.0 2.0 0.00 0.00 0.00 99 1010.5
20260504234409 56 0 0.0 0.0 0.00 0.00 0.00 99 1010.6
20260504233409 56 0 0.0 0.0 0.00 0.00 0.00 99 1010.6
20260504232409 57 0 0.0 0.0 0.00 0.00 0.00 99 1010.6
20260504231409 57 0 0.0 0.0 0.00 0.00 0.00 99 1010.7
20260504230409 57 0 0.0 0.0 0.00 0.00 0.00 99 1010.7
20260504225409 57 0 0.0 0.0 0.00 0.00 0.00 99 1010.8
20260504224409 58 0 0.0 0.0 0.00 0.00 0.00 99 1010.8
20260504223409 58 0 0.0 0.0 0.00 0.00 0.00 99 1011.0
20260504222409 58 0 0.0 2.0 0.00 0.00 0.00 99 1011.0
20260504221409 58 85 0.0 0.0 0.00 0.00 0.00 99 1011.1
20260504220409 59 85 0.0 0.0 0.00 0.00 0.00 99 1011.1
20260504215409 59 85 0.0 3.0 0.00 0.00 0.00 99 1011.1
20260504214409 59 85 0.0 0.0 0.00 0.00 0.00 99 1011.3
20260504213409 59 85 0.0 1.0 0.00 0.00 0.00 99 1011.3
20260504212409 59 85 0.0 1.0 0.00 0.00 0.00 99 1011.3
20260504211409 59 85 0.0 4.0 0.00 0.00 0.00 99 1011.4
20260504210409 59 105 0.0 1.0 0.00 0.00 0.00 99 1011.4
20260504205409 60 110 0.0 3.0 0.00 0.00 0.00 99 1011.4
20260504204409 60 110 0.0 2.0 0.00 0.00 0.00 99 1011.4
20260504203409 60 190 0.0 0.0 0.00 0.00 0.00 99 1011.3
20260504202409 60 190 0.0 3.0 0.00 0.00 0.00 99 1011.2
20260504201409 60 75 0.0 0.0 0.00 0.00 0.00 99 1011.3
20260504200411 60 75 0.0 0.0 0.00 0.00 0.00 99 1011.2
20260504195409 60 75 0.0 0.0 0.00 0.00 0.00 99 1011.1